Hourly Weather Lukowo

Today, 18 May, Tuesday

Time Temperature Precipitation Wind Pressure Humidity
00:00 +10°C° 0 mm 2 mps 746 mmHg 89%
01:00 +10°C° 0 mm 3 mps 746 mmHg 91%
02:00 +10°C° 0 mm 3 mps 746 mmHg 93%
03:00 +9°C° 0 mm 3 mps 747 mmHg 94%
04:00 +9°C° 0 mm 3 mps 747 mmHg 95%
05:00 +10°C° 0 mm 3 mps 747 mmHg 92%
06:00 +11°C° 0 mm 4 mps 747 mmHg 90%
07:00 +11°C° 0 mm 4 mps 748 mmHg 87%
08:00 +12°C° 0.1 mm 4 mps 748 mmHg 82%
09:00 +14°C° 0.1 mm 4 mps 748 mmHg 77%
10:00 +15°C° 0.1 mm 5 mps 748 mmHg 72%
11:00 +15°C° 0.5 mm 5 mps 748 mmHg 72%
12:00 +15°C° 0.5 mm 5 mps 748 mmHg 72%
13:00 +15°C° 0.5 mm 5 mps 748 mmHg 72%
14:00 +15°C° 0.4 mm 5 mps 748 mmHg 73%
15:00 +15°C° 0.4 mm 5 mps 748 mmHg 74%
16:00 +15°C° 0.4 mm 5 mps 749 mmHg 75%
17:00 +14°C° 0.4 mm 5 mps 749 mmHg 79%
18:00 +13°C° 0.4 mm 4 mps 749 mmHg 84%
19:00 +12°C° 0.4 mm 4 mps 749 mmHg 88%
20:00 +11°C° 0 mm 3 mps 749 mmHg 90%
21:00 +10°C° 0 mm 3 mps 750 mmHg 93%
22:00 +9°C° 0 mm 3 mps 750 mmHg 95%
23:00 +8°C° 0 mm 3 mps 750 mmHg 95%

Tomorrow, 19 May, Wednesday

Time Temperature Precipitation Wind Pressure Humidity
00:00 +8°C° 0 mm 3 mps 750 mmHg 95%
01:00 +7°C° 0 mm 3 mps 750 mmHg 96%
02:00 +7°C° 0 mm 2 mps 750 mmHg 96%
03:00 +7°C° 0 mm 2 mps 750 mmHg 95%
04:00 +6°C° 0 mm 2 mps 751 mmHg 95%
05:00 +8°C° 0 mm 3 mps 751 mmHg 93%
06:00 +9°C° 0 mm 3 mps 751 mmHg 90%
07:00 +10°C° 0 mm 3 mps 751 mmHg 87%
08:00 +11°C° 0.2 mm 3 mps 751 mmHg 82%
09:00 +12°C° 0.2 mm 3 mps 751 mmHg 77%
10:00 +13°C° 0.2 mm 3 mps 751 mmHg 73%
11:00 +13°C° 0.6 mm 4 mps 752 mmHg 75%
12:00 +13°C° 0.6 mm 4 mps 752 mmHg 78%
13:00 +12°C° 0.6 mm 4 mps 752 mmHg 81%
14:00 +12°C° 0.5 mm 4 mps 752 mmHg 82%
15:00 +12°C° 0.5 mm 4 mps 752 mmHg 83%
16:00 +12°C° 0.5 mm 5 mps 752 mmHg 84%
17:00 +11°C° 0.2 mm 4 mps 753 mmHg 85%
18:00 +11°C° 0.2 mm 3 mps 753 mmHg 87%
19:00 +10°C° 0.2 mm 3 mps 753 mmHg 89%
20:00 +9°C° 0 mm 3 mps 753 mmHg 89%
21:00 +8°C° 0 mm 2 mps 754 mmHg 90%
22:00 +8°C° 0 mm 2 mps 754 mmHg 91%
23:00 +7°C° 0 mm 2 mps 754 mmHg 91%

Day after tomorrow, 20 May, Thursday

Time Temperature Precipitation Wind Pressure Humidity
00:00 +7°C° 0 mm 2 mps 754 mmHg 91%
01:00 +6°C° 0 mm 2 mps 754 mmHg 90%
02:00 +6°C° 0 mm 2 mps 754 mmHg 91%
03:00 +6°C° 0 mm 2 mps 754 mmHg 92%
04:00 +5°C° 0 mm 2 mps 755 mmHg 92%
05:00 +7°C° 0 mm 2 mps 755 mmHg 89%
06:00 +9°C° 0 mm 2 mps 755 mmHg 86%
07:00 +10°C° 0 mm 3 mps 755 mmHg 83%
08:00 +11°C° 0.2 mm 3 mps 755 mmHg 78%
09:00 +13°C° 0.2 mm 3 mps 755 mmHg 74%
10:00 +14°C° 0.2 mm 4 mps 755 mmHg 69%
11:00 +14°C° 0.5 mm 4 mps 755 mmHg 71%
12:00 +14°C° 0.5 mm 5 mps 756 mmHg 72%
13:00 +13°C° 0.5 mm 5 mps 756 mmHg 73%
14:00 +14°C° 0.2 mm 5 mps 756 mmHg 70%
15:00 +14°C° 0.2 mm 6 mps 756 mmHg 67%
16:00 +14°C° 0.2 mm 6 mps 756 mmHg 64%
17:00 +13°C° 0 mm 5 mps 756 mmHg 67%
18:00 +12°C° 0 mm 5 mps 756 mmHg 71%
19:00 +11°C° 0 mm 4 mps 757 mmHg 74%
20:00 +8°C° 0 mm 4 mps 757 mmHg 77%
21:00 +8°C° 0 mm 3 mps 757 mmHg 80%
22:00 +5°C° 0 mm 3 mps 757 mmHg 84%
23:00 +5°C° 0 mm 3 mps 757 mmHg 86%

21 May, Friday

Time Temperature Precipitation Wind Pressure Humidity
00:00 +5°C° 0 mm 3 mps 757 mmHg 89%
01:00 +4°C° 0 mm 3 mps 757 mmHg 91%
02:00 +4°C° 0 mm 3 mps 757 mmHg 92%
03:00 +3°C° 0 mm 3 mps 757 mmHg 93%
04:00 +3°C° 0 mm 3 mps 757 mmHg 94%
05:00 +5°C° 0 mm 3 mps 757 mmHg 89%
06:00 +7°C° 0 mm 3 mps 757 mmHg 83%
07:00 +8°C° 0 mm 4 mps 757 mmHg 78%
08:00 +10°C° 0 mm 4 mps 756 mmHg 71%
09:00 +11°C° 0 mm 4 mps 756 mmHg 65%
10:00 +13°C° 0 mm 4 mps 756 mmHg 59%
11:00 +13°C° 0 mm 4 mps 756 mmHg 57%
12:00 +14°C° 0 mm 4 mps 755 mmHg 54%
13:00 +16°C° 0 mm 3 mps 755 mmHg 52%
14:00 +16°C° 0 mm 3 mps 754 mmHg 54%
15:00 +16°C° 0 mm 3 mps 754 mmHg 55%
16:00 +17°C° 0 mm 2 mps 753 mmHg 57%
17:00 +16°C° 0 mm 2 mps 753 mmHg 62%
18:00 +14°C° 0 mm 3 mps 753 mmHg 67%
19:00 +13°C° 0 mm 3 mps 752 mmHg 72%
20:00 +12°C° 0.1 mm 3 mps 752 mmHg 76%
21:00 +12°C° 0.1 mm 2 mps 752 mmHg 81%
22:00 +12°C° 0.1 mm 2 mps 752 mmHg 85%
23:00 +10°C° 0 mm 3 mps 751 mmHg 86%

22 May, Saturday

Time Temperature Precipitation Wind Pressure Humidity
00:00 +10°C° 0 mm 3 mps 751 mmHg 87%
01:00 +8°C° 0 mm 4 mps 750 mmHg 88%
02:00 +8°C° 0 mm 4 mps 749 mmHg 87%
03:00 +8°C° 0 mm 4 mps 749 mmHg 87%
04:00 +8°C° 0 mm 4 mps 748 mmHg 86%
05:00 +10°C° 0 mm 4 mps 748 mmHg 83%
06:00 +10°C° 0 mm 5 mps 748 mmHg 80%
07:00 +12°C° 0 mm 5 mps 748 mmHg 76%
08:00 +12°C° 0 mm 5 mps 748 mmHg 78%
09:00 +12°C° 0 mm 5 mps 748 mmHg 80%
10:00 +12°C° 0 mm 5 mps 748 mmHg 82%
11:00 +13°C° 0.3 mm 5 mps 748 mmHg 77%
12:00 +14°C° 0.3 mm 6 mps 748 mmHg 72%
13:00 +16°C° 0.3 mm 6 mps 749 mmHg 67%
14:00 +15°C° 0.2 mm 6 mps 749 mmHg 67%
15:00 +15°C° 0.2 mm 5 mps 749 mmHg 68%
16:00 +15°C° 0.2 mm 5 mps 749 mmHg 68%
17:00 +14°C° 0 mm 4 mps 749 mmHg 69%
18:00 +13°C° 0 mm 4 mps 749 mmHg 70%
19:00 +12°C° 0 mm 4 mps 749 mmHg 70%
20:00 +11°C° 0 mm 3 mps 749 mmHg 73%
21:00 +9°C° 0 mm 3 mps 750 mmHg 75%
22:00 +8°C° 0 mm 3 mps 750 mmHg 78%
23:00 +8°C° 0 mm 3 mps 750 mmHg 80%

23 May, Sunday

Time Temperature Precipitation Wind Pressure Humidity
00:00 +7°C° 0 mm 3 mps 750 mmHg 82%
01:00 +7°C° 0 mm 3 mps 750 mmHg 83%
02:00 +7°C° 0 mm 3 mps 750 mmHg 85%
03:00 +5°C° 0 mm 3 mps 750 mmHg 86%
04:00 +5°C° 0 mm 3 mps 750 mmHg 87%
05:00 +8°C° 0 mm 3 mps 750 mmHg 82%
06:00 +8°C° 0 mm 4 mps 750 mmHg 77%
07:00 +11°C° 0 mm 4 mps 750 mmHg 72%
08:00 +12°C° 0 mm 5 mps 750 mmHg 69%
09:00 +13°C° 0 mm 5 mps 750 mmHg 66%
10:00 +15°C° 0 mm 5 mps 750 mmHg 62%
11:00 +15°C° 0.1 mm 5 mps 750 mmHg 62%
12:00 +15°C° 0.1 mm 6 mps 751 mmHg 61%
13:00 +15°C° 0.1 mm 6 mps 751 mmHg 60%
14:00 +15°C° 0 mm 6 mps 751 mmHg 59%
15:00 +15°C° 0 mm 5 mps 751 mmHg 58%
16:00 +16°C° 0 mm 5 mps 751 mmHg 57%
17:00 +14°C° 0.1 mm 4 mps 751 mmHg 64%
18:00 +13°C° 0.1 mm 4 mps 752 mmHg 71%
19:00 +12°C° 0.1 mm 3 mps 752 mmHg 78%
20:00 +10°C° 0 mm 3 mps 753 mmHg 81%
21:00 +9°C° 0 mm 3 mps 753 mmHg 85%
22:00 +8°C° 0 mm 3 mps 753 mmHg 88%
23:00 +8°C° 0 mm 3 mps 754 mmHg 90%
Show more

We Need Your Consent

Meteoprog and our Service Providers may store and access personal data such as cookies, device identifiers or other similar technologies on your device and process such data to personalise content and ads, as well as provide social media features and to analyse the traffic.

  • Store and/or access information on your device

    Cookies, device identifiers or other information can be stored or accessed on your device for the purposes indicated above.

  • Personalised ads and content, ad and content measurement, audience insights, and products development

    Ads and content can be personalised based on a profile. More data can be added to better personalise ads and content. Ad and content performance can be measured. Insights about the audience who saw the ads and content can be derived. Such data can be used to develop or improve user’s experience, systems and software.

By clicking ‘I Agree’ you will allow the use of indicated cookies, device identifiers, web beacons or other similar technologies. Your settings can be changed in the browser on your device.

For certain purposes, legitimate interests may be relied on, rather than consent. You can read more about this in our Privacy and Cookie Policy.